Zurück zum Katalog

COSMOS 2251 DEB

AktivLEO
NORAD 33760·DEBRIS·🇷🇺 Russia

Gestartet Jun 16, 1993 von Plesetsk Cosmodrome

Loading…

Nächste Überflüge (nächste 24 Stunden)

TLE

AktuellSource: Space-Track

Epoche: Sep 14, 2026, 03:45 UTC

1 33760U 93036H   26257.15649109  .00000148  00000-0  60069-4 0  9995
2 33760  74.0315 135.9298 0020393 173.9135 344.7663 14.35811747920773

Verfolge COSMOS 2251 DEB in Echtzeit mit AllMySat

Download on the App Store